QPF
0.00 0.00 0.00 0.00 0.00 0.00 0.00 0.00 0.00 0.00 0.00 0.00 0.00 0.00 0.00 0.00 0.00 0.00 0.01 0.01 0.01 0.01 0.03 0.03 0.04 0.06 0.09 0.12 0.18 0.20 0.18 0.14 0.11 0.10 0.07 0.06 0.07 0.08 0.09 0.09 0.08 0.09 0.07 0.06
0.00 0.00 0.00 0.00 0.00 0.00 0.00 0.00 0.00 0.00 0.00 0.00 0.00 0.00 0.00 0.00 0.00 0.00 0.00 0.01 0.01 0.02 0.03 0.03 0.05 0.06 0.07 0.10 0.16 0.20 0.20 0.18 0.14 0.11 0.08 0.07 0.09 0.10 0.10 0.11 0.11 0.09 0.08 0.06
0.00 0.00 0.00 0.00 0.00 0.00 0.00 0.00 0.00 0.00 0.00 0.00 0.00 0.00 0.00 0.00 0.00 0.00 0.00 0.00 0.01 0.01 0.02 0.03 0.03 0.06 0.05 0.07 0.13 0.16 0.16 0.19 0.17 0.16 0.14 0.11 0.12 0.10 0.08 0.09 0.09 0.08 0.06 0.05
0.00 0.00 0.00 0.00 0.00 0.00 0.00 0.00 0.00 0.00 0.00 0.00 0.00 0.00 0.00 0.00 0.00 0.00 0.00 0.00 0.00 0.01 0.01 0.02 0.03 0.05 0.05 0.05 0.10 0.14 0.17 0.18 0.18 0.16 0.13 0.11 0.10 0.09 0.08 0.09 0.08 0.07 0.06 0.06
0.00 0.00 0.00 0.00 0.00 0.00 0.00 0.00 0.00 0.00 0.00 0.00 0.00 0.00 0.00 0.00 0.00 0.00 0.00 0.00 0.00 0.00 0.01 0.02 0.04 0.05 0.07 0.08 0.11 0.17 0.18 0.19 0.17 0.16 0.14 0.12 0.11 0.12 0.12 0.10 0.07 0.07 0.06 0.06
0.00 0.00 0.00 0.00 0.00 0.00 0.00 0.00 0.00 0.00 0.00 0.00 0.00 0.00 0.00 0.00 0.00 0.00 0.00 0.00 0.00 0.00 0.02 0.03 0.04 0.06 0.07 0.08 0.11 0.16 0.15 0.17 0.15 0.14 0.14 0.13 0.11 0.11 0.11 0.08 0.06 0.05 0.04 0.04
0.00 0.00 0.00 0.00 0.00 0.00 0.00 0.00 0.00 0.00 0.00 0.00 0.00 0.00 0.00 0.00 0.00 0.00 0.00 0.00 0.00 0.00 0.02 0.04 0.06 0.06 0.04 0.04 0.06 0.09 0.14 0.15 0.12 0.11 0.12 0.12 0.11 0.12 0.12 0.09 0.07 0.06 0.04 0.03
0.00 0.00 0.00 0.00 0.00 0.00 0.00 0.00 0.00 0.00 0.00 0.00 0.00 0.00 0.00 0.00 0.00 0.00 0.00 0.00 0.00 0.00 0.01 0.03 0.07 0.09 0.06 0.05 0.04 0.05 0.11 0.14 0.10 0.09 0.10 0.13 0.10 0.11 0.10 0.09 0.07 0.05 0.04 0.05
0.00 0.00 0.00 0.00 0.00 0.00 0.00 0.00 0.00 0.00 0.00 0.00 0.00 0.00 0.00 0.00 0.00 0.00 0.00 0.00 0.00 0.00 0.01 0.01 0.03 0.07 0.08 0.06 0.05 0.04 0.09 0.11 0.08 0.08 0.09 0.11 0.09 0.10 0.09 0.08 0.06 0.05 0.05 0.05
0.00 0.00 0.00 0.00 0.00 0.00 0.00 0.00 0.00 0.00 0.01 0.01 0.00 0.00 0.00 0.00 0.00 0.00 0.00 0.00 0.00 0.00 0.00 0.01 0.01 0.03 0.05 0.05 0.05 0.05 0.07 0.09 0.08 0.06 0.07 0.07 0.07 0.08 0.08 0.07 0.05 0.04 0.04 0.04
0.00 0.00 0.00 0.00 0.00 0.00 0.00 0.00 0.00 0.00 0.00 0.01 0.00 0.00 0.00 0.00 0.00 0.00 0.00 0.00 0.00 0.00 0.00 0.00 0.01 0.01 0.02 0.02 0.03 0.03 0.04 0.07 0.07 0.07 0.07 0.07 0.06 0.06 0.06 0.05 0.05 0.04 0.05 0.04
0.00 0.00 0.00 0.00 0.00 0.00 0.00 0.00 0.00 0.00 0.00 0.00 0.00 0.00 0.00 0.00 0.00 0.00 0.00 0.00 0.00 0.00 0.00 0.00 0.01 0.01 0.01 0.01 0.01 0.02 0.02 0.04 0.05 0.05 0.06 0.07 0.06 0.05 0.05 0.04 0.04 0.04 0.04 0.03
0.00 0.00 0.00 0.00 0.00 0.00 0.00 0.00 0.00 0.00 0.00 0.00 0.00 0.00 0.00 0.00 0.00 0.00 0.00 0.00 0.00 0.00 0.00 0.00 0.01 0.01 0.01 0.01 0.01 0.01 0.01 0.03 0.04 0.05 0.05 0.05 0.04 0.03 0.02 0.02 0.02 0.03 0.03 0.03
0.00 0.00 0.00 0.00 0.00 0.00 0.00 0.00 0.00 0.00 0.00 0.00 0.00 0.00 0.00 0.00 0.00 0.00 0.00 0.00 0.00 0.00 0.00 0.00 0.00 0.01 0.01 0.01 0.02 0.02 0.02 0.03 0.04 0.05 0.05 0.04 0.03 0.02 0.02 0.02 0.02 0.02 0.03 0.04
0.00 0.00 0.00 0.00 0.00 0.00 0.00 0.01 0.01 0.01 0.00 0.00 0.00 0.00 0.00 0.00 0.00 0.00 0.00 0.00 0.00 0.00 0.00 0.00 0.00 0.01 0.01 0.01 0.02 0.02 0.02 0.02 0.03 0.04 0.04 0.03 0.03 0.03 0.03 0.03 0.02 0.02 0.02 0.03
0.00 0.00 0.00 0.00 0.00 0.00 0.00 0.01 0.01 0.01 0.00 0.00 0.00 0.00 0.00 0.00 0.00 0.00 0.00 0.00 0.00 0.00 0.00 0.00 0.00 0.00 0.00 0.01 0.01 0.02 0.02 0.02 0.03 0.04 0.04 0.04 0.03 0.03 0.02 0.02 0.03 0.03 0.03 0.04
0.00 0.00 0.00 0.00 0.00 0.00 0.01 0.01 0.02 0.01 0.00 0.01 0.01 0.00 0.00 0.00 0.00 0.01 0.00 0.00 0.00 0.00 0.00 0.00 0.00 0.00 0.01 0.01 0.02 0.02 0.03 0.03 0.04 0.04 0.04 0.03 0.03 0.02 0.02 0.02 0.04 0.04 0.03 0.03
0.01 0.01 0.01 0.01 0.01 0.01 0.01 0.01 0.01 0.02 0.01 0.01 0.01 0.01 0.00 0.01 0.01 0.01 0.01 0.00 0.00 0.00 0.00 0.00 0.00 0.01 0.02 0.02 0.02 0.02 0.02 0.03 0.04 0.04 0.04 0.04 0.04 0.03 0.03 0.03 0.04 0.03 0.03 0.03
0.01 0.02 0.02 0.02 0.02 0.01 0.01 0.01 0.01 0.02 0.02 0.02 0.02 0.01 0.02 0.01 0.01 0.01 0.01 0.01 0.01 0.00 0.00 0.00 0.00 0.01 0.02 0.03 0.02 0.02 0.02 0.03 0.05 0.04 0.03 0.03 0.04 0.03 0.02 0.02 0.04 0.04 0.04 0.04
0.01 0.02 0.03 0.03 0.03 0.02 0.01 0.01 0.01 0.04 0.06 0.03 0.02 0.02 0.02 0.02 0.03 0.02 0.01 0.01 0.01 0.01 0.01 0.01 0.01 0.01 0.02 0.02 0.02 0.03 0.04 0.04 0.06 0.07 0.06 0.05 0.05 0.04 0.04 0.05 0.05 0.06 0.05 0.05
0.03 0.03 0.03 0.04 0.04 0.03 0.01 0.01 0.03 0.09 0.13 0.07 0.03 0.02 0.03 0.03 0.03 0.03 0.02 0.03 0.03 0.01 0.01 0.01 0.01 0.01 0.02 0.02 0.03 0.04 0.04 0.04 0.05 0.07 0.08 0.08 0.07 0.06 0.07 0.08 0.08 0.08 0.06 0.05
0.04 0.04 0.04 0.05 0.05 0.04 0.02 0.02 0.05 0.07 0.06 0.06 0.03 0.02 0.02 0.03 0.03 0.03 0.03 0.03 0.03 0.02 0.02 0.01 0.01 0.01 0.02 0.03 0.03 0.03 0.03 0.05 0.05 0.05 0.06 0.06 0.06 0.07 0.07 0.07 0.09 0.09 0.07 0.06
0.04 0.04 0.04 0.05 0.04 0.03 0.02 0.03 0.04 0.04 0.03 0.04 0.03 0.03 0.02 0.02 0.03 0.03 0.03 0.03 0.02 0.03 0.03 0.02 0.02 0.02 0.02 0.05 0.05 0.06 0.05 0.05 0.04 0.04 0.05 0.06 0.07 0.08 0.08 0.09 0.09 0.10 0.09 0.08
0.04 0.04 0.04 0.05 0.05 0.04 0.04 0.06 0.06 0.06 0.04 0.03 0.03 0.03 0.03 0.03 0.03 0.03 0.03 0.04 0.04 0.04 0.03 0.02 0.02 0.02 0.03 0.06 0.07 0.08 0.07 0.05 0.04 0.04 0.04 0.05 0.07 0.08 0.08 0.09 0.11 0.11 0.11 0.11
0.06 0.08 0.07 0.07 0.06 0.06 0.08 0.08 0.08 0.08 0.06 0.04 0.03 0.04 0.04 0.03 0.05 0.06 0.04 0.04 0.04 0.04 0.03 0.02 0.02 0.02 0.02 0.03 0.04 0.05 0.05 0.04 0.04 0.04 0.05 0.05 0.05 0.05 0.05 0.05 0.06 0.07 0.08 0.08
0.04 0.07 0.10 0.10 0.07 0.08 0.10 0.12 0.09 0.06 0.05 0.05 0.07 0.12 0.11 0.07 0.08 0.11 0.09 0.05 0.05 0.04 0.03 0.03 0.02 0.02 0.02 0.02 0.02 0.03 0.04 0.04 0.05 0.05 0.04 0.03 0.03 0.03 0.03 0.03 0.04 0.05 0.06 0.06
MSLP
1008.35 1008.65 1008.80 1008.83 1008.76 1008.63 1008.48 1008.31 1008.14 1007.95 1007.73 1007.47 1007.17 1006.86 1006.57 1006.34 1006.21 1006.21 1006.34 1006.58 1006.91 1007.27 1007.62 1007.94 1008.20 1008.43 1008.66 1008.91 1009.22 1009.62 1010.12 1010.68 1011.29 1011.89 1012.47 1012.99 1013.44 1013.85 1014.23 1014.62 1015.04 1015.50 1016.01 1016.54
1008.55 1008.74 1008.80 1008.75 1008.64 1008.52 1008.41 1008.33 1008.24 1008.14 1007.98 1007.76 1007.47 1007.13 1006.79 1006.50 1006.32 1006.27 1006.36 1006.59 1006.89 1007.23 1007.55 1007.82 1008.01 1008.15 1008.27 1008.43 1008.67 1009.02 1009.51 1010.10 1010.77 1011.47 1012.14 1012.75 1013.28 1013.72 1014.12 1014.50 1014.90 1015.34 1015.82 1016.34
1008.49 1008.59 1008.56 1008.46 1008.34 1008.26 1008.22 1008.23 1008.26 1008.25 1008.17 1007.98 1007.69 1007.33 1006.93 1006.58 1006.33 1006.23 1006.29 1006.49 1006.79 1007.11 1007.41 1007.63 1007.76 1007.82 1007.85 1007.92 1008.08 1008.38 1008.85 1009.48 1010.22 1011.00 1011.78 1012.49 1013.10 1013.61 1014.04 1014.42 1014.79 1015.19 1015.65 1016.15
1008.19 1008.20 1008.12 1007.99 1007.90 1007.87 1007.94 1008.07 1008.22 1008.32 1008.32 1008.17 1007.88 1007.48 1007.03 1006.60 1006.29 1006.13 1006.15 1006.33 1006.62 1006.95 1007.24 1007.44 1007.53 1007.53 1007.49 1007.48 1007.57 1007.82 1008.28 1008.92 1009.70 1010.57 1011.44 1012.25 1012.95 1013.52 1013.98 1014.36 1014.72 1015.08 1015.50 1015.96
1007.71 1007.66 1007.55 1007.43 1007.39 1007.45 1007.64 1007.90 1008.18 1008.40 1008.47 1008.36 1008.07 1007.63 1007.11 1006.60 1006.21 1005.99 1005.97 1006.14 1006.43 1006.78 1007.09 1007.30 1007.38 1007.36 1007.28 1007.21 1007.24 1007.45 1007.88 1008.51 1009.32 1010.24 1011.17 1012.06 1012.83 1013.45 1013.94 1014.33 1014.67 1015.00 1015.36 1015.78
1007.15 1007.07 1006.95 1006.87 1006.90 1007.07 1007.39 1007.79 1008.20 1008.51 1008.66 1008.58 1008.27 1007.78 1007.18 1006.60 1006.13 1005.85 1005.79 1005.94 1006.25 1006.63 1006.99 1007.24 1007.37 1007.36 1007.27 1007.18 1007.17 1007.33 1007.72 1008.33 1009.13 1010.05 1011.01 1011.93 1012.74 1013.41 1013.92 1014.31 1014.62 1014.92 1015.24 1015.62
1006.60 1006.51 1006.41 1006.38 1006.50 1006.78 1007.22 1007.74 1008.26 1008.66 1008.85 1008.79 1008.46 1007.92 1007.25 1006.59 1006.04 1005.69 1005.60 1005.75 1006.08 1006.51 1006.94 1007.27 1007.47 1007.52 1007.46 1007.38 1007.36 1007.49 1007.82 1008.38 1009.13 1010.02 1010.96 1011.88 1012.70 1013.37 1013.88 1014.27 1014.57 1014.83 1015.12 1015.45
1006.12 1006.03 1005.96 1006.00 1006.20 1006.58 1007.12 1007.74 1008.33 1008.79 1009.02 1008.95 1008.60 1008.01 1007.28 1006.54 1005.92 1005.52 1005.40 1005.54 1005.91 1006.40 1006.91 1007.35 1007.65 1007.79 1007.81 1007.77 1007.76 1007.86 1008.15 1008.64 1009.31 1010.13 1011.02 1011.89 1012.67 1013.32 1013.82 1014.19 1014.48 1014.72 1014.98 1015.28
1005.71 1005.64 1005.61 1005.71 1005.98 1006.43 1007.04 1007.72 1008.36 1008.84 1009.08 1009.00 1008.62 1007.99 1007.21 1006.41 1005.74 1005.30 1005.16 1005.30 1005.70 1006.25 1006.85 1007.40 1007.82 1008.09 1008.21 1008.24 1008.27 1008.37 1008.61 1009.03 1009.62 1010.34 1011.13 1011.92 1012.65 1013.25 1013.73 1014.08 1014.35 1014.58 1014.82 1015.10
1005.35 1005.31 1005.34 1005.48 1005.80 1006.29 1006.93 1007.62 1008.27 1008.75 1008.97 1008.88 1008.47 1007.82 1007.01 1006.19 1005.49 1005.03 1004.86 1005.01 1005.43 1006.03 1006.71 1007.36 1007.90 1008.29 1008.53 1008.67 1008.76 1008.88 1009.10 1009.46 1009.97 1010.59 1011.27 1011.96 1012.61 1013.15 1013.59 1013.92 1014.18 1014.40 1014.64 1014.91
1005.03 1005.03 1005.09 1005.28 1005.62 1006.12 1006.74 1007.41 1008.02 1008.46 1008.66 1008.55 1008.14 1007.49 1006.69 1005.87 1005.18 1004.71 1004.53 1004.67 1005.09 1005.71 1006.44 1007.16 1007.80 1008.31 1008.67 1008.91 1009.09 1009.26 1009.49 1009.82 1010.26 1010.79 1011.37 1011.97 1012.52 1013.00 1013.39 1013.70 1013.96 1014.18 1014.42 1014.70
1004.73 1004.78 1004.89 1005.10 1005.44 1005.92 1006.49 1007.10 1007.64 1008.02 1008.17 1008.05 1007.65 1007.03 1006.27 1005.50 1004.83 1004.37 1004.20 1004.32 1004.71 1005.32 1006.04 1006.80 1007.49 1008.08 1008.54 1008.89 1009.16 1009.40 1009.67 1010.00 1010.40 1010.87 1011.38 1011.89 1012.37 1012.79 1013.14 1013.43 1013.68 1013.91 1014.16 1014.45
1004.50 1004.60 1004.76 1004.98 1005.31 1005.74 1006.23 1006.74 1007.18 1007.49 1007.59 1007.45 1007.07 1006.50 1005.82 1005.12 1004.51 1004.09 1003.91 1004.00 1004.35 1004.89 1005.57 1006.29 1006.98 1007.61 1008.13 1008.56 1008.92 1009.25 1009.57 1009.93 1010.34 1010.78 1011.24 1011.70 1012.12 1012.50 1012.82 1013.09 1013.34 1013.58 1013.84 1014.14
1004.40 1004.57 1004.77 1005.01 1005.31 1005.66 1006.05 1006.43 1006.75 1006.95 1006.98 1006.83 1006.49 1006.00 1005.41 1004.81 1004.29 1003.92 1003.75 1003.79 1004.06 1004.50 1005.07 1005.70 1006.34 1006.94 1007.48 1007.95 1008.39 1008.79 1009.19 1009.61 1010.04 1010.49 1010.94 1011.36 1011.76 1012.10 1012.40 1012.67 1012.91 1013.17 1013.44 1013.76
1004.50 1004.75 1005.00 1005.25 1005.50 1005.76 1006.02 1006.25 1006.42 1006.50 1006.45 1006.28 1005.98 1005.57 1005.10 1004.63 1004.21 1003.91 1003.74 1003.75 1003.92 1004.23 1004.65 1005.13 1005.65 1006.16 1006.67 1007.15 1007.62 1008.09 1008.56 1009.04 1009.52 1010.00 1010.46 1010.89 1011.27 1011.60 1011.89 1012.15 1012.40 1012.66 1012.95 1013.28
1004.87 1005.20 1005.49 1005.73 1005.93 1006.08 1006.19 1006.24 1006.24 1006.18 1006.05 1005.85 1005.58 1005.26 1004.92 1004.59 1004.30 1004.07 1003.94 1003.91 1003.98 1004.14 1004.38 1004.68 1005.03 1005.41 1005.83 1006.27 1006.74 1007.24 1007.76 1008.30 1008.84 1009.36 1009.84 1010.28 1010.67 1010.99 1011.28 1011.54 1011.80 1012.08 1012.38 1012.72
1005.51 1005.90 1006.23 1006.45 1006.58 1006.60 1006.54 1006.41 1006.23 1006.02 1005.78 1005.54 1005.30 1005.08 1004.87 1004.69 1004.53 1004.41 1004.32 1004.27 1004.25 1004.27 1004.33 1004.44 1004.59 1004.81 1005.09 1005.45 1005.88 1006.38 1006.92 1007.50 1008.08 1008.63 1009.15 1009.60 1009.99 1010.32 1010.61 1010.88 1011.15 1011.43 1011.75 1012.10
1006.34 1006.79 1007.13 1007.32 1007.36 1007.25 1007.02 1006.70 1006.33 1005.96 1005.62 1005.34 1005.13 1004.99 1004.92 1004.89 1004.89 1004.89 1004.87 1004.83 1004.76 1004.66 1004.55 1004.47 1004.43 1004.47 1004.60 1004.85 1005.20 1005.65 1006.19 1006.77 1007.36 1007.93 1008.46 1008.92 1009.31 1009.65 1009.94 1010.21 1010.48 1010.78 1011.11 1011.48
1007.24 1007.73 1008.06 1008.21 1008.16 1007.92 1007.52 1007.02 1006.48 1005.97 1005.53 1005.21 1005.03 1004.98 1005.04 1005.17 1005.33 1005.47 1005.55 1005.55 1005.46 1005.28 1005.06 1004.82 1004.61 1004.48 1004.45 1004.57 1004.82 1005.20 1005.69 1006.24 1006.81 1007.37 1007.88 1008.34 1008.72 1009.05 1009.33 1009.61 1009.89 1010.20 1010.54 1010.93
1008.10 1008.59 1008.90 1009.00 1008.86 1008.50 1007.96 1007.31 1006.63 1006.00 1005.49 1005.15 1005.00 1005.03 1005.22 1005.51 1005.83 1006.12 1006.32 1006.39 1006.32 1006.12 1005.82 1005.47 1005.13 1004.86 1004.70 1004.69 1004.83 1005.12 1005.53 1006.01 1006.53 1007.04 1007.52 1007.94 1008.29 1008.60 1008.87 1009.14 1009.42 1009.74 1010.11 1010.51
1008.80 1009.28 1009.56 1009.61 1009.39 1008.94 1008.30 1007.55 1006.77 1006.07 1005.52 1005.18 1005.07 1005.19 1005.50 1005.93 1006.40 1006.83 1007.15 1007.32 1007.31 1007.13 1006.81 1006.40 1005.99 1005.62 1005.35 1005.23 1005.27 1005.45 1005.76 1006.16 1006.59 1007.03 1007.43 1007.79 1008.10 1008.36 1008.61 1008.87 1009.15 1009.48 1009.85 1010.27
1009.32 1009.77 1010.02 1010.02 1009.76 1009.26 1008.57 1007.77 1006.96 1006.24 1005.69 1005.37 1005.32 1005.52 1005.92 1006.47 1007.07 1007.62 1008.06 1008.33 1008.39 1008.26 1007.97 1007.56 1007.12 1006.70 1006.37 1006.16 1006.10 1006.18 1006.39 1006.68 1007.01 1007.34 1007.65 1007.93 1008.17 1008.38 1008.59 1008.82 1009.09 1009.42 1009.80 1010.23
1009.68 1010.09 1010.31 1010.30 1010.02 1009.52 1008.84 1008.05 1007.27 1006.58 1006.07 1005.81 1005.81 1006.07 1006.55 1007.18 1007.86 1008.51 1009.04 1009.39 1009.54 1009.48 1009.24 1008.87 1008.44 1008.01 1007.65 1007.40 1007.27 1007.26 1007.36 1007.53 1007.75 1007.97 1008.17 1008.35 1008.50 1008.65 1008.81 1009.01 1009.26 1009.57 1009.95 1010.37
1009.96 1010.35 1010.56 1010.54 1010.30 1009.84 1009.21 1008.50 1007.80 1007.18 1006.75 1006.55 1006.60 1006.91 1007.43 1008.10 1008.82 1009.51 1010.09 1010.50 1010.71 1010.72 1010.55 1010.24 1009.86 1009.46 1009.10 1008.82 1008.64 1008.56 1008.57 1008.64 1008.73 1008.83 1008.92 1009.00 1009.06 1009.13 1009.23 1009.39 1009.61 1009.90 1010.26 1010.66
1010.26 1010.64 1010.85 1010.86 1010.67 1010.29 1009.78 1009.18 1008.59 1008.08 1007.74 1007.61 1007.70 1008.03 1008.55 1009.20 1009.91 1010.59 1011.17 1011.61 1011.86 1011.93 1011.82 1011.58 1011.26 1010.92 1010.59 1010.32 1010.11 1009.98 1009.90 1009.87 1009.86 1009.85 1009.83 1009.80 1009.77 1009.77 1009.81 1009.91 1010.09 1010.35 1010.67 1011.03
1010.66 1011.03 1011.25 1011.31 1011.20 1010.93 1010.54 1010.08 1009.62 1009.24 1008.99 1008.92 1009.04 1009.36 1009.84 1010.44 1011.08 1011.70 1012.25 1012.67 1012.93 1013.03 1012.98 1012.81 1012.57 1012.28 1012.00 1011.75 1011.53 1011.36 1011.23 1011.12 1011.01 1010.90 1010.78 1010.67 1010.56 1010.49 1010.47 1010.53 1010.66 1010.87 1011.14 1011.45
Thickness
5778 5772 5771 5780 5786 5787 5784 5781 5782 5790 5800 5794 5794 5796 5802 5802 5798 5793 5790 5785 5781 5777 5777 5773 5768 5763 5758 5753 5749 5745 5741 5739 5737 5735 5734 5733 5733 5733 5733 5733 5732 5731 5731 5730
5764 5765 5780 5786 5783 5779 5777 5774 5780 5789 5794 5791 5791 5793 5800 5799 5795 5793 5788 5784 5781 5776 5772 5767 5763 5758 5754 5750 5746 5743 5740 5738 5736 5735 5734 5733 5733 5732 5731 5731 5730 5730 5729 5728
5763 5775 5784 5776 5771 5769 5774 5776 5779 5780 5788 5791 5786 5787 5791 5795 5795 5792 5789 5785 5782 5776 5769 5763 5759 5755 5752 5747 5744 5741 5738 5736 5734 5733 5731 5730 5728 5727 5727 5728 5728 5728 5728 5727
5766 5778 5773 5769 5769 5771 5768 5784 5782 5779 5776 5781 5780 5773 5787 5791 5787 5786 5785 5783 5779 5775 5770 5764 5759 5754 5751 5748 5744 5740 5736 5734 5732 5730 5729 5728 5727 5726 5727 5727 5728 5727 5726 5726
5763 5771 5767 5764 5773 5776 5777 5783 5781 5780 5777 5776 5780 5771 5786 5789 5781 5784 5785 5782 5779 5775 5770 5764 5760 5755 5751 5748 5743 5739 5735 5732 5731 5729 5729 5727 5727 5727 5727 5726 5725 5725 5725 5725
5770 5777 5776 5776 5783 5783 5781 5776 5775 5777 5778 5761 5773 5767 5774 5788 5784 5785 5785 5782 5778 5775 5770 5765 5761 5757 5752 5748 5744 5740 5734 5730 5728 5727 5727 5726 5726 5725 5724 5723 5723 5723 5724 5724
5755 5766 5777 5781 5772 5776 5774 5764 5753 5751 5754 5759 5775 5766 5774 5789 5791 5787 5784 5782 5779 5774 5769 5763 5759 5754 5751 5747 5743 5739 5733 5728 5727 5726 5725 5725 5725 5725 5724 5723 5722 5723 5723 5723
5744 5749 5769 5775 5773 5770 5770 5770 5752 5741 5747 5763 5767 5763 5781 5791 5790 5788 5786 5784 5778 5773 5769 5764 5759 5755 5751 5746 5742 5737 5732 5728 5726 5725 5724 5725 5725 5725 5725 5724 5724 5723 5724 5725
5751 5753 5773 5778 5781 5777 5767 5769 5781 5765 5763 5755 5766 5773 5783 5788 5784 5783 5782 5780 5776 5772 5768 5764 5760 5756 5752 5747 5742 5738 5733 5729 5727 5726 5725 5724 5725 5725 5726 5726 5725 5725 5725 5725
5761 5749 5763 5770 5775 5774 5778 5777 5766 5757 5739 5738 5755 5762 5768 5777 5778 5779 5778 5777 5776 5773 5770 5765 5761 5756 5752 5748 5744 5741 5737 5732 5729 5728 5726 5726 5725 5726 5726 5726 5725 5726 5725 5724
5761 5747 5753 5759 5758 5762 5762 5763 5764 5764 5759 5744 5740 5759 5782 5779 5780 5778 5779 5779 5777 5774 5771 5767 5763 5759 5754 5750 5745 5741 5738 5734 5731 5730 5728 5728 5727 5727 5727 5726 5726 5725 5724 5723
5757 5753 5747 5756 5767 5771 5768 5766 5762 5748 5746 5752 5750 5760 5787 5783 5782 5781 5780 5778 5778 5775 5773 5769 5764 5760 5755 5750 5746 5742 5740 5737 5735 5733 5731 5729 5729 5728 5727 5727 5726 5725 5724 5723
5751 5742 5731 5736 5745 5755 5757 5762 5763 5760 5754 5751 5747 5757 5780 5780 5779 5778 5777 5775 5774 5772 5771 5768 5763 5759 5755 5752 5748 5745 5742 5740 5739 5736 5733 5731 5729 5728 5727 5727 5727 5726 5724 5724
5751 5741 5738 5734 5743 5752 5748 5752 5756 5753 5746 5750 5754 5760 5769 5771 5769 5770 5771 5772 5771 5769 5767 5764 5760 5757 5755 5753 5750 5747 5745 5744 5742 5739 5736 5732 5731 5730 5729 5728 5727 5726 5725 5724
5743 5736 5741 5748 5752 5752 5750 5749 5750 5748 5753 5750 5756 5759 5762 5764 5763 5764 5765 5767 5766 5764 5762 5761 5758 5757 5755 5753 5751 5749 5748 5746 5744 5740 5738 5735 5733 5732 5731 5729 5728 5727 5725 5725
5734 5729 5733 5733 5742 5743 5740 5745 5747 5747 5750 5750 5751 5751 5760 5761 5760 5757 5757 5759 5760 5760 5759 5758 5757 5755 5754 5753 5752 5750 5749 5747 5745 5741 5738 5737 5735 5733 5731 5730 5729 5727 5726 5725
5727 5720 5717 5722 5732 5729 5724 5739 5741 5743 5747 5746 5742 5746 5751 5749 5746 5746 5748 5751 5753 5755 5756 5755 5755 5754 5754 5754 5754 5751 5750 5748 5744 5741 5740 5738 5736 5734 5732 5731 5729 5727 5725 5724
5713 5712 5714 5716 5712 5698 5727 5742 5740 5736 5738 5743 5741 5742 5742 5741 5740 5741 5742 5742 5744 5747 5750 5751 5752 5753 5753 5754 5753 5752 5750 5747 5744 5741 5740 5738 5735 5733 5731 5730 5728 5726 5724 5722
5709 5706 5707 5707 5703 5710 5718 5726 5727 5723 5721 5729 5729 5731 5735 5736 5735 5731 5732 5734 5735 5739 5742 5745 5748 5750 5750 5750 5750 5749 5747 5745 5741 5739 5737 5737 5735 5732 5729 5727 5725 5723 5721 5718
5700 5702 5700 5698 5693 5694 5708 5717 5722 5716 5705 5716 5719 5720 5723 5726 5722 5719 5720 5723 5726 5729 5734 5738 5742 5743 5743 5744 5746 5743 5741 5739 5736 5736 5735 5734 5732 5729 5726 5723 5721 5719 5717 5715
5686 5686 5688 5688 5688 5698 5704 5710 5712 5695 5695 5706 5710 5711 5713 5712 5710 5708 5710 5712 5715 5718 5723 5728 5730 5731 5733 5736 5737 5735 5733 5731 5731 5730 5729 5727 5726 5723 5721 5719 5717 5714 5712 5709
5682 5681 5679 5682 5678 5681 5695 5699 5693 5690 5697 5699 5700 5702 5702 5701 5700 5700 5701 5702 5705 5708 5712 5715 5717 5718 5721 5725 5726 5724 5723 5723 5723 5722 5720 5718 5717 5716 5714 5711 5709 5707 5704 5701
5678 5678 5680 5677 5675 5680 5686 5684 5685 5688 5688 5690 5691 5693 5694 5691 5689 5690 5691 5693 5694 5697 5700 5703 5705 5705 5707 5710 5712 5711 5711 5713 5713 5712 5710 5708 5706 5705 5704 5702 5699 5697 5694 5692
5670 5672 5671 5667 5669 5671 5673 5675 5677 5680 5681 5683 5685 5686 5685 5681 5680 5679 5681 5682 5683 5686 5688 5690 5692 5693 5693 5696 5698 5700 5701 5702 5702 5700 5698 5696 5694 5693 5691 5690 5688 5686 5684 5681
5661 5663 5662 5659 5660 5661 5662 5664 5666 5668 5671 5674 5675 5676 5674 5672 5670 5669 5669 5670 5671 5673 5675 5677 5678 5679 5679 5682 5684 5686 5688 5690 5688 5687 5686 5684 5683 5681 5677 5675 5673 5672 5667 5667
5654 5654 5653 5653 5655 5655 5652 5655 5659 5659 5659 5661 5662 5660 5660 5660 5658 5657 5656 5656 5658 5660 5662 5663 5664 5666 5667 5669 5671 5673 5675 5676 5676 5674 5673 5673 5672 5669 5668 5665 5659 5651 5651 5648